MDT,Max TemperatureF,Mean TemperatureF,Min TemperatureF,Max Dew PointF,MeanDew PointF,Min DewpointF,Max Humidity, Mean Humidity, Min Humidity, Max Sea Level PressureIn, Mean Sea Level PressureIn, Min Sea Level PressureIn, Max VisibilityMiles, Mean VisibilityMiles, Min VisibilityMiles, Max Wind SpeedMPH, Mean Wind SpeedMPH, Max Gust SpeedMPH,PrecipitationIn, CloudCover, Events, WindDirDegrees
2013-4-1,59,44,30,39,32,28,93,76,34,30.16,30.10,29.99,20,12,7,24,9,31,0.00,3,Rain,114
2013-4-2,42,40,37,39,36,34,100,91,81,30.12,30.08,30.05,10,8,3,14,8,,0.00,8,Rain,291
2013-4-3,59,47,35,37,34,23,100,75,25,30.14,30.11,30.00,20,9,4,8,4,,0.00,5,Rain,259
2013-4-4,66,50,33,37,31,25,93,58,21,30.18,30.13,30.02,10,10,10,13,5,,0.00,2,,208
2013-4-5,71,60,48,36,29,19,50,39,15,30.02,29.92,29.75,10,10,10,23,12,33,0.00,3,,212
2013-4-6,62,50,39,36,30,19,75,49,20,29.97,29.92,29.88,20,10,10,21,5,31,0.00,3,Rain,270
2013-4-7,66,50,35,39,31,21,93,56,18,29.89,29.80,29.72,10,10,10,23,12,33,0.00,3,Rain,242
2013-4-8,73,50,26,41,30,19,100,65,13,29.83,29.65,29.40,10,8,1,38,11,48,0.00,3,Rain-Snow-Thunderstorm,142
2013-4-9,26,18,10,23,15,9,93,88,79,30.14,29.99,29.83,5,2,0,28,21,37,0.00,8,Snow-Thunderstorm,351
2013-4-10,24,14,5,18,10,3,92,83,68,30.12,30.02,29.85,10,9,3,10,6,,0.00,4,Snow,336
2013-4-11,48,32,17,37,27,14,93,79,50,29.92,29.80,29.70,10,10,5,17,5,16,0.00,6,,136
2013-4-12,59,46,32,39,32,27,100,84,29,29.99,29.92,29.88,10,10,10,36,6,41,0.00,4,,151
2013-4-13,69,50,32,39,31,14,100,68,13,29.95,29.68,29.45,10,10,10,24,10,33,0.00,3,Rain,176
2013-4-14,50,42,33,41,27,10,100,69,20,29.78,29.61,29.51,10,10,5,37,19,45,0.00,3,Rain,310
2013-4-15,37,30,24,30,26,19,100,80,48,30.00,29.83,29.72,20,7,1,18,9,24,0.00,8,Snow,69
2013-4-16,39,32,26,32,28,25,100,92,75,30.01,29.93,29.80,10,7,4,31,8,37,0.00,8,Snow,145
2013-4-17,32,28,23,32,27,19,100,95,86,30.10,29.96,29.89,10,4,0,26,11,25,0.00,8,Snow,60
2013-4-18,35,30,26,23,19,14,69,63,52,30.14,30.10,30.06,10,10,10,18,9,21,0.00,2,,300
2013-4-19,55,42,30,32,21,18,70,54,28,30.12,30.05,29.96,10,10,10,12,8,,0.00,2,,224
2013-4-20,57,45,33,37,32,27,87,70,33,30.03,29.95,29.89,10,10,10,16,7,,0.00,3,Rain,165
2013-4-21,62,48,35,37,32,21,87,66,22,30.09,30.03,29.99,10,10,10,23,8,,0.00,2,Rain,215
2013-4-22,50,37,24,37,31,23,93,79,54,30.28,30.05,29.90,10,7,0,28,10,34,0.00,5,Rain-Snow,29
2013-4-23,32,26,21,23,21,18,100,87,64,30.26,30.20,30.14,10,5,1,14,6,,0.00,6,Snow,62
2013-4-24,51,40,28,32,24,18,81,64,26,30.22,30.15,30.10,10,10,10,17,11,,0.00,1,,197
2013-4-25,64,50,35,36,26,18,75,50,18,30.18,30.06,29.92,10,10,10,23,11,26,0.00,1,,174
2013-4-26,66,52,37,34,30,23,75,56,19,30.25,30.13,30.03,10,10,10,12,8,21,0.00,0,,239
2013-4-27,71,55,39,34,30,18,75,48,13,30.25,30.16,30.07,10,10,10,16,10,21,0.00,0,,208
2013-4-28,78,64,50,39,28,21,42,30,13,30.07,29.98,29.89,10,10,10,28,12,41,0.00,2,,195
2013-4-29,80,61,42,41,34,25,76,44,13,29.99,29.83,29.67,10,10,10,16,9,28,0.00,3,,173
2013-4-30,66,54,39,39,33,23,87,55,19,30.04,29.81,29.68,10,10,10,28,12,33,0.00,4,,52